Seminole, TX

1:22 PM CDT on March 23, 2017 (GMT -0500)
Seminole

Weather History for KGNC - February, 2014

Change the Weather History Date:

Thursday, February 13, 2014

  Actual Average (KHOB) Record (KHOB)
Temperature  
Mean Temperature 52 °F -  
Max Temperature 71 °F 59 °F 77 °F (1954)
Min Temperature 34 °F 32 °F 15 °F (2004)
Degree Days  
Heating Degree Days 12    
Growing Degree Days 2 (Base 50)    
Moisture  
Dew Point 23 °F    
Average Humidity 35    
Maximum Humidity 57    
Minimum Humidity 17    
Precipitation  
Precipitation 0.00 in - - ()
Sea Level Pressure  
Sea Level Pressure 29.94 in    
Wind  
Wind Speed 7 mph (WSW)    
Max Wind Speed 15 mph    
Max Gust Speed 22 mph    
Visibility 10 miles    
Events      
Averages and records for this station are not official NWS values.
T = Trace of Precipitation, MM = Missing Value Source: NWS Daily Summary

Daily Weather History Graph

Daily Weather History Graph

Search for Another Location

Airport or City:

Trip Planner

Search our weather history database for the weather conditions in past years. The results will help you decide how hot, cold, wet, or windy it might be!

Date:

Astronomy

Feb. 13, 2014 Rise Set
Actual Time 7:35 AM CST 6:34 PM CST
Civil Twilight 7:10 AM CST 6:59 PM CST
Nautical Twilight 6:41 AM CST 7:28 PM CST
Astronomical Twilight 6:12 AM CST 7:57 PM CST
Moon 5:44 PM CST (2/13) 6:29 AM CST (2/13)
Length of Visible Light 11h 49m
Length of Day
10h 59m
Waxing Gibbous, 99% of the Moon is Illuminated
Feb 13
Waxing Gibbous
Feb 14
Full
Feb 22
Last Quarter
Mar 1
New
Mar 8
First Quarter

Hourly Weather History & Observations

Time (CST) Temp. Windchill Dew Point Humidity Pressure Visibility Wind Dir Wind Speed Gust Speed Precip Events Conditions
12:15 AM 36.5 °F - 19.4 °F 50% 30.00 in 10.0 mi Calm Calm - N/A   Clear
12:35 AM 35.4 °F 32.6 °F 20.1 °F 54% 29.99 in 10.0 mi SSW 3.5 mph - N/A   Clear
12:55 AM 34.9 °F - 20.3 °F 55% 29.98 in 10.0 mi Calm Calm - N/A   Clear
1:15 AM 35.1 °F - 20.1 °F 55% 29.98 in 10.0 mi Calm Calm - N/A   Clear
1:35 AM 34.0 °F 27.2 °F 20.3 °F 57% 29.98 in 10.0 mi WSW 8.1 mph - N/A   Clear
1:55 AM 36.5 °F 30.3 °F 20.3 °F 52% 29.97 in 10.0 mi WSW 8.1 mph - N/A   Clear
2:15 AM 37.4 °F 30.8 °F 20.1 °F 50% 29.97 in 10.0 mi SW 9.2 mph - N/A   Clear
2:35 AM 38.3 °F 31.4 °F 20.1 °F 48% 29.96 in 10.0 mi SW 10.4 mph - N/A   Clear
2:55 AM 39.9 °F 33.4 °F 19.9 °F 45% 29.96 in 10.0 mi SW 10.4 mph - N/A   Clear
3:15 AM 39.4 °F 32.3 °F 19.9 °F 46% 29.95 in 10.0 mi SW 11.5 mph - N/A   Clear
3:35 AM 40.5 °F 34.6 °F 19.9 °F 44% 29.94 in 10.0 mi WSW 9.2 mph - N/A   Clear
3:55 AM 39.4 °F 33.2 °F 20.1 °F 46% 29.93 in 10.0 mi SW 9.2 mph - N/A   Clear
4:15 AM 40.1 °F 34.1 °F 19.9 °F 44% 29.93 in 10.0 mi WSW 9.2 mph - N/A   Clear
4:35 AM 40.3 °F 34.4 °F 19.9 °F 44% 29.93 in 10.0 mi WSW 9.2 mph - N/A   Clear
4:55 AM 40.5 °F 35.1 °F 19.8 °F 44% 29.93 in 10.0 mi West 8.1 mph - N/A   Clear
5:15 AM 39.7 °F 33.7 °F 19.9 °F 45% 29.92 in 10.0 mi WSW 9.2 mph - N/A   Clear
5:35 AM 40.1 °F 34.7 °F 19.9 °F 44% 29.92 in 10.0 mi WSW 8.1 mph - N/A   Clear
5:55 AM 38.3 °F 32.5 °F 20.1 °F 48% 29.92 in 10.0 mi WSW 8.1 mph - N/A   Clear
6:15 AM 37.4 °F 30.3 °F 20.3 °F 50% 29.92 in 10.0 mi WSW 10.4 mph - N/A   Clear
6:35 AM 37.4 °F 30.8 °F 20.3 °F 50% 29.93 in 10.0 mi WSW 9.2 mph - N/A   Clear
6:55 AM 37.2 °F 30.0 °F 20.3 °F 50% 29.93 in 10.0 mi WSW 10.4 mph - N/A   Clear
7:15 AM 37.2 °F 29.6 °F 20.1 °F 50% 29.94 in 10.0 mi WSW 11.5 mph - N/A   Clear
7:35 AM 37.8 °F 30.7 °F 20.1 °F 49% 29.94 in 10.0 mi WSW 10.4 mph - N/A   Clear
7:55 AM 38.8 °F 32.1 °F 19.9 °F 47% 29.95 in 10.0 mi West 10.4 mph - N/A   Clear
8:15 AM 40.5 °F 34.1 °F 20.3 °F 45% 29.97 in 10.0 mi West 10.4 mph - N/A   Clear
8:35 AM 44.1 °F 39.0 °F 21.0 °F 40% 29.97 in 10.0 mi West 9.2 mph - N/A   Clear
8:55 AM 47.3 °F - 21.2 °F 36% 29.97 in 10.0 mi WNW 10.4 mph - N/A   Clear
9:15 AM 48.0 °F - 21.9 °F 36% 29.98 in 10.0 mi WNW 9.2 mph - N/A   Clear
9:35 AM 52.9 °F - 23.4 °F 32% 29.99 in 10.0 mi NW 13.8 mph - N/A   Clear
9:55 AM 54.7 °F - 23.9 °F 30% 29.99 in 10.0 mi NNW 13.8 mph - N/A   Clear
10:15 AM 57.6 °F - 24.4 °F 28% 29.99 in 10.0 mi North 12.7 mph 20.7 mph N/A   Clear
10:35 AM 60.8 °F - 24.8 °F 25% 30.00 in 10.0 mi North 15.0 mph 21.9 mph N/A   Clear
10:55 AM 63.9 °F - 24.6 °F 23% 30.00 in 10.0 mi NNE 12.7 mph 18.4 mph N/A   Clear
11:15 AM 65.1 °F - 24.3 °F 21% 30.00 in 10.0 mi NNE 12.7 mph 17.3 mph N/A   Clear
11:35 AM 65.8 °F - 24.8 °F 21% 30.00 in 10.0 mi North 11.5 mph 17.3 mph N/A   Clear
11:55 AM 65.3 °F - 24.6 °F 21% 30.00 in 10.0 mi NNE 10.4 mph - N/A   Clear
12:15 PM 66.6 °F - 24.8 °F 21% 29.98 in 10.0 mi NNE 10.4 mph - N/A   Clear
12:35 PM 67.1 °F - 24.8 °F 20% 29.98 in 10.0 mi NE 6.9 mph - N/A   Clear
12:55 PM 68.2 °F - 25.5 °F 20% 29.98 in 10.0 mi North 10.4 mph - N/A   Clear
1:35 PM 68.5 °F - 25.7 °F 20% 29.96 in 10.0 mi NE 9.2 mph - N/A   Clear
1:55 PM 69.6 °F - 25.7 °F 19% 29.95 in 10.0 mi North 8.1 mph - N/A   Clear
2:15 PM 70.5 °F - 25.9 °F 19% 29.94 in 10.0 mi North 8.1 mph - N/A   Clear
2:35 PM 69.6 °F - 25.5 °F 19% 29.93 in 10.0 mi North 6.9 mph - N/A   Clear
2:55 PM 69.8 °F - 25.5 °F 19% 29.92 in 10.0 mi Calm Calm - N/A   Clear
3:15 PM 70.2 °F - 25.3 °F 19% 29.93 in 10.0 mi WNW 3.5 mph - N/A   Clear
3:35 PM 71.8 °F - 25.3 °F 18% 29.92 in 10.0 mi NE 6.9 mph - N/A   Clear
3:55 PM 70.7 °F - 24.8 °F 18% 29.92 in 10.0 mi Calm Calm - N/A   Clear
4:15 PM 71.4 °F - 24.4 °F 17% 29.92 in 10.0 mi NW 3.5 mph - N/A   Clear
4:35 PM 71.1 °F - 24.6 °F 18% 29.91 in 10.0 mi NNE 4.6 mph - N/A   Clear
4:55 PM 70.3 °F - 24.3 °F 18% 29.91 in 10.0 mi South 3.5 mph - N/A   Clear
5:15 PM 70.7 °F - 24.4 °F 18% 29.91 in 10.0 mi Calm Calm - N/A   Clear
5:35 PM 70.0 °F - 24.3 °F 18% 29.90 in 10.0 mi Calm Calm - N/A   Clear
5:55 PM 68.2 °F - 24.8 °F 20% 29.90 in 10.0 mi ESE 4.6 mph - N/A   Clear
6:15 PM 66.7 °F - 24.8 °F 21% 29.90 in 10.0 mi East 5.8 mph - N/A   Clear
6:35 PM 62.6 °F - 26.1 °F 25% 29.90 in 10.0 mi ESE 5.8 mph - N/A   Clear
6:55 PM 59.4 °F - 26.2 °F 28% 29.91 in 10.0 mi ESE 4.6 mph - N/A   Clear
7:15 PM 57.6 °F - 26.6 °F 31% 29.89 in 10.0 mi SE 5.8 mph - N/A   Clear
7:35 PM 54.5 °F - 25.7 °F 33% 29.90 in 10.0 mi SE 5.8 mph - N/A   Clear
7:55 PM 53.4 °F - 25.7 °F 34% 29.90 in 10.0 mi SSE 4.6 mph - N/A   Clear
8:15 PM 52.3 °F - 25.7 °F 36% 29.90 in 10.0 mi SSE 5.8 mph - N/A   Clear
8:35 PM 50.7 °F - 25.9 °F 38% 29.91 in 10.0 mi South 4.6 mph - N/A   Clear
8:55 PM 49.6 °F - 26.6 °F 41% 29.91 in 10.0 mi South 3.5 mph - N/A   Clear
9:15 PM 51.4 °F - 26.2 °F 38% 29.91 in 10.0 mi SSW 3.5 mph - N/A   Clear
9:35 PM 49.5 °F - 26.6 °F 41% 29.91 in 10.0 mi SW 3.5 mph - N/A   Clear
9:55 PM 48.4 °F - 26.6 °F 43% 29.91 in 7.0 mi SSW 3.5 mph - N/A   Clear
10:15 PM 46.9 °F - 26.4 °F 45% 29.91 in 10.0 mi Calm Calm - N/A   Clear
10:35 PM 48.0 °F - 26.6 °F 43% 29.91 in 10.0 mi Calm Calm - N/A   Clear
10:55 PM 47.5 °F - 26.1 °F 43% 29.90 in 10.0 mi SW 5.8 mph - N/A   Clear
11:15 PM 47.5 °F - 26.2 °F 44% 29.89 in 10.0 mi SW 5.8 mph - N/A   Clear
11:35 PM 49.6 °F - 25.7 °F 39% 29.88 in 10.0 mi SW 12.7 mph - N/A   Clear
11:55 PM 51.3 °F - 25.3 °F 37% 29.88 in 10.0 mi SW 9.2 mph - N/A   Clear